Volver al catálogo

STARLINK-33815

ActivoComunicacionesVLEO
NORAD 63497·PAYLOAD·🇺🇸 United States

Lanzado Apr 7, 2025 desde Vandenberg Space Force Base

Loading…

Próximos Pases (próximas 24 horas)

TLE

ActualizadoSource: CelesTrak SupGP

Época: Sep 15, 2026, 03:49 UTC

1 63497C 25071E   26258.15951389  .00064476  00000+0  20727-2 0  2582
2 63497  53.1604 338.7869 0001200  86.9151 274.9002 15.31679761    18

Sigue STARLINK-33815 en tiempo real con AllMySat

Download on the App Store